Regional Weather Roundup
Issued by NWS

Home | Current Version | Previous Version | Graphics & Text | Print | Product List | Glossary On
Versions: 1 2 3 4 5 6 7 8 9 10 11 12 13 14 15 16 17 18 19 20 21 22 23 24 25 26 27
000
ASUS45 KBOU 250907
RWRCO

WEATHER ROUNDUP FOR COLORADO
NATIONAL WEATHER SERVICE DENVER/BOULDER CO
300 AM MDT THU AUG 25 2016

NOTE: "FAIR" INDICATES FEW OR NO CLOUDS BELOW 12000 FEET WITH NO
SIGNIFICANT WEATHER AND/OR OBSTRUCTIONS TO VISIBILITY.

COZ001>005-013-030-031-251000-
...NORTHWEST COLORADO...

CITY           SKY/WX    TMP DP  RH WIND       PRES   REMARKS
CRAIG          FAIR      46  37  71 CALM      30.22S
HAYDEN         FAIR      48  32  53 E8        30.23S
MEEKER         FAIR      50  40  68 SE3       30.23S
MOUNT WERNER   NOT AVBL
STEAMBOAT SPGS FAIR      46  37  72 E3        30.24F
WALDEN         FAIR      34  30  86 SE7       30.33S WCI  28
$$

COZ006>008-011-251000-
...WEST CENTRAL VALLEYS...

CITY           SKY/WX    TMP DP  RH WIND       PRES   REMARKS
GRAND JUNCTION FAIR      58  49  72 E9        30.15S
MONTROSE       FAIR      54  45  71 SW3       30.25S
EAGLE          FAIR      54  37  54 CALM      30.29R
RIFLE          FAIR      54  46  74 E8        30.19F
DELTA          FAIR      59  47  65 CALM      30.21S
NUCLA          FAIR      54  43  66 E6        30.26S
$$

COZ017>023-064>068-251000-
...SOUTHWEST COLORADO...

CITY           SKY/WX    TMP DP  RH WIND       PRES   REMARKS
DURANGO        FAIR      46  45  96 N6        30.29F
CORTEZ         FAIR      51  48  89 E5        30.23F
PAGOSA SPRINGS FAIR      46  45  98 CALM      30.36S
TELLURIDE      FAIR      46  39  78 SE7       30.44S
WOLF CREEK PAS FAIR      37  32  81 SW7       30.59F
$$

COZ009-010-012-014-032>034-037-058>063-251000-
...CENTRAL COLORADO...

CITY           SKY/WX    TMP DP  RH WIND       PRES   REMARKS
ASPEN          MOCLDY    45  36  70 SE3       30.33S
BUENA VISTA    CLOUDY    46  43  89 NW3       30.38F
COPPER MTN     NOT AVBL
BERTHOUD PASS  FAIR      34  21  60 NW12G17   30.57S WCI  25
COTTONWOOD PAS FAIR      45  41  87 CALM      30.46S
GUNNISON       FAIR      48  39  71 NE8       30.38S
KREMMLING      FAIR      41  36  81 CALM      30.33S
LEADVILLE      CLOUDY    42  39  89 SE3       30.45F
MONARCH PASS   FAIR      37  34  87 W16       30.65F
SALIDA         CLOUDY    49  44  84 W6        30.44F
SUNLIGHT       FAIR      45  34  65 NE9       30.51F
WILKERSON PASS FOG       36  36 100 W6        30.54S VSB 3/4
$$

COZ069>075-251000-
...SAN LUIS VALLEY/SANGRE DE CRISTO MOUNTAINS...

CITY           SKY/WX    TMP DP  RH WIND       PRES   REMARKS
ALAMOSA        FAIR      40  39  97 E3        30.35S
LA VETA PASS   FAIR      41  37  87 S3        30.47S
SAGUACHE       FAIR      45  43  93 N5        30.38S
$$

COZ035-036-038>040-251000-
...NORTHERN COLORADO FRONT RANGE...

CITY           SKY/WX    TMP DP  RH WIND       PRES   REMARKS
DENVER INTL AP FAIR      49  39  68 S14       30.22F
DMNS CITY PARK   N/A     51  46  83 SE6G12    30.21F
AURORA         PTCLDY    50  39  65 S10       30.23F
FRONT RANGE AP NOT AVBL
ERIE MUNI ARPT FAIR      48  47  97 CALM      30.22S FOG
BOULDER MUN AP FAIR      54  50  87 SW3       30.22F
CENTENNIAL     FAIR      50  38  63 S9        30.23F
BROOMFIELD     FAIR      52  50  93 NW6       30.24S
FORT COLLINS   FAIR      50  48  93 N3        30.23F
LONGMONT       FAIR      51  47  84 CALM      30.23F
$$

COZ041-046-047-076>085-087-088-251000-
...PIKES PEAK/PALMER DIVIDE AND SOUTHERN FOOTHILLS...

CITY           SKY/WX    TMP DP  RH WIND       PRES   REMARKS
COLO. SPRINGS  FAIR      47  36  65 NE3       30.30S
A. F. ACADEMY  FAIR      43  40  89 N6        30.29F
SCHRIEVER AFB  NOT AVBL
ELLICOTT       NOT AVBL
FALCON         FAIR      44  35  69 W3        30.32S
FORT CARSON    NOT AVBL
LIMON          FAIR      42  33  70 N3        30.24F
MONUMENT HILL  FAIR      41  34  75 S10       30.31F
TRINIDAD       FAIR      54  50  86 W9        30.27S
$$

COZ042>045-048>051-090-091-251000-
...NORTHEAST COLORADO...

CITY           SKY/WX    TMP DP  RH WIND       PRES   REMARKS
GREELEY ARPT   FAIR      48  45  87 E3        30.22S
AKRON          FAIR      51  38  60 S7        30.23R
BURLINGTON     FAIR      54  43  66 NE5       30.20F
WRAY           FAIR      52  41  66 CALM      30.20S
STERLING       FAIR      46  39  76 CALM      30.21S
HOLYOKE        FAIR      52  46  82 CALM      30.20S
FORT MORGAN    FAIR      49  39  68 E5        30.23F
$$

COZ086-089-092>099-251000-
...SOUTHEAST COLORADO...

CITY           SKY/WX    TMP DP  RH WIND       PRES   REMARKS
PUEBLO         FAIR      54  47  77 CALM      30.22S
LA JUNTA       FAIR      59  44  57 NW5       30.20S
LAMAR          CLOUDY    59  51  75 N3        30.16S
SPRINGFIELD      N/A     58  54  86 W7        30.18S
$$




USA.gov is the U.S. government's official web portal to all federal, state and local government web resources and services.